Sigfox identifier Datetime Temperature Humidity SNR
003BFE9D 2019-03-18 13:17:30 20.7 27 19.3
003BFE9D 2019-03-18 12:44:44 20.7 27 19.2
003BFE9D 2019-03-18 12:11:59 20.7 27 19.1
003BFE9D 2019-03-18 11:39:12 20.7 27 19.1
003BFE9D 2019-03-18 11:06:26 20.6 27 19.1
003BFE9D 2019-03-18 10:33:39 20.6 27 18.9
003BFE9D 2019-03-18 10:00:53 20.6 27 18.8
003BFE9D 2019-03-18 09:28:07 20.6 27 18.8
003BFE9D 2019-03-18 08:55:20 20.6 27 18.5
003BFE9D 2019-03-18 08:22:34 20.5 27 18.4
003BFE9D 2019-03-18 07:49:48 20.5 27 18.3
003BFE9D 2019-03-18 07:17:03 20.5 27 18.3
003BFE9D 2019-03-18 06:44:15 20.6 27 18.2
003BFE9D 2019-03-18 06:11:29 20.5 27 18
003BFE9D 2019-03-18 05:38:43 20.5 27 17.7
003BFE9D 2019-03-18 05:05:56 20.5 27 17.6
003BFE9D 2019-03-18 04:33:09 20.5 27 17.6
003BFE9D 2019-03-18 04:00:22 20.5 27 17.5
003BFE9D 2019-03-18 03:27:35 20.5 27 17.2
003BFE9D 2019-03-18 02:54:48 20.5 27 16.9
003BFE9D 2019-03-18 02:22:00 20.5 27 16.6
003BFE9D 2019-03-18 01:49:15 20.5 26 16.6
003BFE9D 2019-03-18 01:16:28 20.5 26 16.8
003BFE9D 2019-03-18 00:43:42 20.5 26 16.8
003BFE9D 2019-03-18 00:10:56 20.5 26 16.9
003BFE9D 2019-03-17 23:38:10 20.5 26 16.8
003BFE9D 2019-03-17 23:05:24 20.5 26 16.9
003BFE9D 2019-03-17 22:32:04 20.5 26 17
003BFE9D 2019-03-17 21:59:18 20.6 26 17.1
003BFE9D 2019-03-17 21:26:31 20.5 26 17.1
003BFE9D 2019-03-17 20:53:45 20.5 26 17.3
003BFE9D 2019-03-17 20:20:59 20.5 26 17.3
003BFE9D 2019-03-17 19:48:11 20.5 26 17.4
003BFE9D 2019-03-17 19:15:25 20.5 26 17.5
003BFE9D 2019-03-17 18:42:39 20.5 26 17.3
003BFE9D 2019-03-17 18:09:55 20.6 26 17.7
003BFE9D 2019-03-17 17:37:07 20.5 26 17.9
003BFE9D 2019-03-17 17:04:23 20.6 26 18
003BFE9D 2019-03-17 16:31:36 20.6 26 18.3
003BFE9D 2019-03-17 15:58:50 20.6 27 20.2
003BFE9D 2019-03-17 15:26:04 20.6 27 20.2
003BFE9D 2019-03-17 14:53:17 20.6 27 20.4
003BFE9D 2019-03-17 14:20:30 20.6 27 20.4
003BFE9D 2019-03-17 13:47:44 20.6 27 20.3
003BFE9D 2019-03-17 13:14:57 20.6 27 20.4
003BFE9D 2019-03-17 12:42:11 20.6 27 20.3
003BFE9D 2019-03-17 12:09:24 20.6 27 20.2
003BFE9D 2019-03-17 11:36:38 20.6 27 20.2
003BFE9D 2019-03-17 11:03:52 20.6 27 20.2
003BFE9D 2019-03-17 10:31:05 20.6 27 20.2
003BFE9D 2019-03-17 09:58:19 20.6 27 20.3
003BFE9D 2019-03-17 09:25:33 20.6 27 20.4
003BFE9D 2019-03-17 08:52:47 20.6 27 20.2
003BFE9D 2019-03-17 08:20:01 20.6 27 20.1
003BFE9D 2019-03-17 07:47:15 20.6 27 20.1
003BFE9D 2019-03-17 07:14:28 20.6 27 20.1
003BFE9D 2019-03-17 06:41:42 20.6 27 20.1
003BFE9D 2019-03-17 06:08:56 20.6 27 20.1
003BFE9D 2019-03-17 05:36:10 20.6 27 20.1
003BFE9D 2019-03-17 05:03:25 20.6 27 20
003BFE9D 2019-03-17 04:30:39 20.6 27 19.9
003BFE9D 2019-03-17 03:57:52 20.6 27 19.7
003BFE9D 2019-03-17 03:25:07 20.6 27 19.7
003BFE9D 2019-03-17 02:52:20 20.6 27 19.5
003BFE9D 2019-03-17 02:19:33 20.6 27 17
003BFE9D 2019-03-17 01:46:47 20.6 27 16.9
003BFE9D 2019-03-17 01:14:00 20.6 27 16.6
003BFE9D 2019-03-17 00:41:14 20.5 27 16.8
003BFE9D 2019-03-17 00:08:29 20.5 27 17.1
003BFE9D 2019-03-16 23:35:43 20.6 27 17
003BFE9D 2019-03-16 23:02:57 20.6 27 17.2
003BFE9D 2019-03-16 22:30:11 20.6 27 16.9
003BFE9D 2019-03-16 21:57:24 20.6 27 17.1
003BFE9D 2019-03-16 21:24:38 20.6 26 17.4
003BFE9D 2019-03-16 20:51:52 20.6 26 17.3
003BFE9D 2019-03-16 20:19:08 20.6 26 16.9
003BFE9D 2019-03-16 19:46:20 20.6 26 17
003BFE9D 2019-03-16 19:13:01 20.6 26 17.2
003BFE9D 2019-03-16 18:40:16 20.6 26 17.2
003BFE9D 2019-03-16 18:07:31 20.6 26 17.3
003BFE9D 2019-03-16 17:34:45 20.6 26 17.3
003BFE9D 2019-03-16 17:02:00 20.6 26 17.3
003BFE9D 2019-03-16 16:29:14 20.6 26 17.2
003BFE9D 2019-03-16 15:56:28 20.6 26 19.6
003BFE9D 2019-03-16 15:23:42 20.6 26 21.2
003BFE9D 2019-03-16 14:50:56 20.6 26 21.2
003BFE9D 2019-03-16 14:18:11 20.6 26 21.1
003BFE9D 2019-03-16 13:45:27 20.6 26 21.1
003BFE9D 2019-03-16 13:12:43 20.6 26 21.1
003BFE9D 2019-03-16 12:39:55 20.6 26 21.2
003BFE9D 2019-03-16 12:07:09 20.6 26 21.2
003BFE9D 2019-03-16 11:34:24 20.6 26 21.1
003BFE9D 2019-03-16 11:01:39 20.6 26 21.1
003BFE9D 2019-03-16 10:28:52 20.6 26 21
003BFE9D 2019-03-16 09:56:05 20.6 26 21
003BFE9D 2019-03-16 09:23:20 20.6 26 21.2
003BFE9D 2019-03-16 08:50:35 20.6 26 21.1
003BFE9D 2019-03-16 08:17:49 20.6 26 21
003BFE9D 2019-03-16 07:45:03 20.6 26 21
003BFE9D 2019-03-16 07:12:17 20.6 26 21.1
003BFE9D 2019-03-16 06:39:30 20.6 26 21.2
003BFE9D 2019-03-16 06:06:46 20.6 26 21.2
003BFE9D 2019-03-16 05:33:58 20.6 26 21.2
003BFE9D 2019-03-16 04:28:28 20.6 26 21.2
003BFE9D 2019-03-16 03:55:41 20.6 26 21.3
003BFE9D 2019-03-16 03:22:56 20.6 26 21.3
003BFE9D 2019-03-16 02:50:10 20.6 26 21.2
003BFE9D 2019-03-16 02:17:26 20.6 26 21.2
003BFE9D 2019-03-16 01:44:38 20.6 26 19.7
003BFE9D 2019-03-16 01:11:52 20.6 26 17.3
003BFE9D 2019-03-16 00:39:07 20.6 26 17.7
003BFE9D 2019-03-16 00:06:21 20.6 26 17.7
003BFE9D 2019-03-15 23:33:35 20.7 27 17.7
003BFE9D 2019-03-15 23:00:49 20.7 27 17.9
003BFE9D 2019-03-15 22:28:02 20.7 27 17.8
003BFE9D 2019-03-15 21:55:16 20.7 27 17.7
003BFE9D 2019-03-15 21:22:30 20.8 26 17.7
003BFE9D 2019-03-15 20:49:43 20.8 27 18
003BFE9D 2019-03-15 20:16:57 20.7 26 18
003BFE9D 2019-03-15 19:44:11 20.8 26 17.9
003BFE9D 2019-03-15 19:11:24 20.7 26 17.8
003BFE9D 2019-03-15 18:38:38 20.8 26 17.6
003BFE9D 2019-03-15 18:05:51 20.8 26 17.7
003BFE9D 2019-03-15 17:33:05 20.8 26 17.7
003BFE9D 2019-03-15 17:00:19 20.8 26 17.4
003BFE9D 2019-03-15 16:27:31 20.7 26 17.4
003BFE9D 2019-03-15 15:54:11 20.8 26 17.5
003BFE9D 2019-03-15 15:21:24 20.8 26 17.5
003BFE9D 2019-03-15 14:48:37 20.8 26 17.2
003BFE9D 2019-03-15 14:15:49 20.8 26 17.3
003BFE9D 2019-03-15 13:43:02 20.8 26 17.6
003BFE9D 2019-03-15 13:10:16 20.8 26 17.6
003BFE9D 2019-03-15 12:37:29 20.7 26 17.7
003BFE9D 2019-03-15 12:04:44 20.7 26 17.9
003BFE9D 2019-03-15 11:31:55 20.7 26 17.8
003BFE9D 2019-03-15 10:59:09 20.7 25 17.8
003BFE9D 2019-03-15 10:26:23 20.7 25 17.9
003BFE9D 2019-03-15 09:53:37 20.6 25 17.7
003BFE9D 2019-03-15 09:20:51 20.6 25 17.7
003BFE9D 2019-03-15 08:48:05 20.6 25 17.8
003BFE9D 2019-03-15 08:15:21 20.6 24 19.9
003BFE9D 2019-03-15 07:42:34 20.6 24 19.7
003BFE9D 2019-03-15 07:09:48 20.6 24 19.7
003BFE9D 2019-03-15 06:37:02 20.6 24 19.6
003BFE9D 2019-03-15 06:04:16 20.6 24 19.5
003BFE9D 2019-03-15 05:31:30 20.6 24 19.6
003BFE9D 2019-03-15 04:58:43 20.6 24 19.5
003BFE9D 2019-03-15 04:25:59 20.6 24 19.5
003BFE9D 2019-03-15 03:53:14 20.6 24 19.5
003BFE9D 2019-03-15 03:20:28 20.6 24 19.4
003BFE9D 2019-03-15 02:47:42 20.6 24 19.3
003BFE9D 2019-03-15 02:14:55 20.6 24 19.4
003BFE9D 2019-03-15 01:42:09 20.7 24 19.3
003BFE9D 2019-03-15 01:09:23 20.7 24 19.3
003BFE9D 2019-03-15 00:36:37 20.7 24 19.2
003BFE9D 2019-03-15 00:03:51 20.7 24 19.1
003BFE9D 2019-03-14 23:31:06 20.7 24 19.1
003BFE9D 2019-03-14 22:58:21 20.7 24 19.3
003BFE9D 2019-03-14 22:25:36 20.8 23 19.2
003BFE9D 2019-03-14 21:52:51 20.8 23 19.2
003BFE9D 2019-03-14 21:20:04 20.8 24 19.2
003BFE9D 2019-03-14 20:47:19 20.8 23 19.5
003BFE9D 2019-03-14 20:14:32 20.9 23 19.5
003BFE9D 2019-03-14 19:41:46 20.8 23 19.5
003BFE9D 2019-03-14 19:09:01 20.8 23 19.6
003BFE9D 2019-03-14 18:36:15 20.9 23 17.4
003BFE9D 2019-03-14 18:03:29 20.9 23 17.4
003BFE9D 2019-03-14 17:30:44 20.9 23 17.7
003BFE9D 2019-03-14 16:57:59 20.9 23 17.9
003BFE9D 2019-03-14 16:25:13 20.9 23 18
003BFE9D 2019-03-14 15:52:30 20.9 23 18.2
003BFE9D 2019-03-14 15:19:42 20.9 23 18.2
003BFE9D 2019-03-14 14:46:56 20.9 23 18.3
003BFE9D 2019-03-14 14:14:11 20.9 23 18.5
003BFE9D 2019-03-14 13:41:25 20.9 23 18.7
003BFE9D 2019-03-14 13:08:39 20.8 23 18.8
003BFE9D 2019-03-14 12:35:20 20.8 23 18.7
003BFE9D 2019-03-14 12:02:35 20.8 22 18.8
003BFE9D 2019-03-14 11:29:49 20.7 22 19
003BFE9D 2019-03-14 10:57:03 20.8 22 19.1
003BFE9D 2019-03-14 10:24:17 20.7 22 19.2
003BFE9D 2019-03-14 09:51:31 20.7 21 19
003BFE9D 2019-03-14 09:18:45 20.6 21 19
003BFE9D 2019-03-14 08:45:59 20.6 20 18.8
003BFE9D 2019-03-14 07:07:40 20.6 19 18.5
003BFE9D 2019-03-14 04:56:36 20.6 18 17.9
003BFE9D 2019-03-14 04:23:51 20.6 18 18.1
003BFE9D 2019-03-14 03:51:05 20.6 18 18
003BFE9D 2019-03-14 03:18:19 20.6 18 20
003BFE9D 2019-03-14 02:45:34 20.6 18 19.8
003BFE9D 2019-03-14 02:12:49 20.6 18 19.8
003BFE9D 2019-03-14 01:40:03 20.6 18 19.9
003BFE9D 2019-03-14 01:07:17 20.6 17 19.8
003BFE9D 2019-03-14 00:34:31 20.6 17 19.6
003BFE9D 2019-03-14 00:01:46 20.6 17 19.5
003BFE9D 2019-03-13 23:29:00 20.6 17 19.6
003BFE9D 2019-03-13 22:56:15 20.6 17 19.7
003BFE9D 2019-03-13 22:23:29 20.6 17 19.9
003BFE9D 2019-03-13 21:50:43 20.6 17 19.9
003BFE9D 2019-03-13 21:17:58 20.7 17 20
003BFE9D 2019-03-13 20:45:13 20.7 17 20.2
003BFE9D 2019-03-13 20:12:30 20.7 17 20.4
003BFE9D 2019-03-13 19:39:44 20.7 16 20.6
003BFE9D 2019-03-13 19:06:59 20.8 16 20.8
003BFE9D 2019-03-13 18:34:12 20.8 16 20.9
003BFE9D 2019-03-13 18:01:27 20.8 16 21
003BFE9D 2019-03-13 17:28:41 20.9 16 21.2
003BFE9D 2019-03-13 16:55:55 20.9 16 22.3
003BFE9D 2019-03-13 16:23:08 20.9 16 22.5
003BFE9D 2019-03-13 15:50:24 20.8 16 22.7
003BFE9D 2019-03-13 15:17:38 20.8 16 22.8
003BFE9D 2019-03-13 14:44:55 20.8 16 22.7
003BFE9D 2019-03-13 14:12:08 20.8 16 22.9
003BFE9D 2019-03-13 13:39:23 20.7 16 22.1
003BFE9D 2019-03-13 13:06:37 20.7 16 22.2
003BFE9D 2019-03-13 12:33:52 20.7 17 22.3
003BFE9D 2019-03-13 12:01:06 20.7 16 22.3
003BFE9D 2019-03-13 11:28:20 20.7 17 22.4
003BFE9D 2019-03-13 10:55:37 20.6 16 22.6
003BFE9D 2019-03-13 10:22:49 20.5 16 22.7
003BFE9D 2019-03-13 09:50:04 20.4 16 22.7
003BFE9D 2019-03-13 09:16:46 20.3 15 22.7
003BFE9D 2019-03-13 08:44:00 20.3 15 22.7
003BFE9D 2019-03-13 08:11:15 20.3 15 22.7
003BFE9D 2019-03-13 07:38:28 20.3 15 22.8
003BFE9D 2019-03-13 07:05:42 20.3 15 22.6
003BFE9D 2019-03-13 06:32:56 20.4 15 22.6
003BFE9D 2019-03-13 06:00:11 20.4 16 22.5
003BFE9D 2019-03-13 05:27:26 20.4 16 22.4
003BFE9D 2019-03-13 04:54:41 20.4 16 22.3
003BFE9D 2019-03-13 04:21:56 20.4 16 22.3
003BFE9D 2019-03-13 03:49:10 20.4 16 22.3
003BFE9D 2019-03-13 03:16:24 20.4 16 21.3
003BFE9D 2019-03-13 02:43:38 20.4 16 22.2
003BFE9D 2019-03-13 02:10:52 20.4 16 22
003BFE9D 2019-03-13 01:38:06 20.5 16 21.9
003BFE9D 2019-03-13 01:05:20 20.5 16 21.8
003BFE9D 2019-03-13 00:32:33 20.5 16 22.6
003BFE9D 2019-03-12 23:59:47 20.5 16 22.5
003BFE9D 2019-03-12 23:27:00 20.5 16 22.5
003BFE9D 2019-03-12 22:54:14 20.5 16 23.3
003BFE9D 2019-03-12 22:21:28 20.6 16 23.9
003BFE9D 2019-03-12 21:48:42 20.6 16 24.5
003BFE9D 2019-03-12 21:15:57 20.6 16 25
003BFE9D 2019-03-12 20:43:12 20.6 16 25.4
003BFE9D 2019-03-12 20:10:26 20.6 16 25.9
003BFE9D 2019-03-12 19:37:41 20.6 16 26.3
003BFE9D 2019-03-12 19:04:56 20.6 16 26.6
003BFE9D 2019-03-12 18:32:11 20.7 16 26.9
003BFE9D 2019-03-12 17:59:25 20.7 16 27.2
003BFE9D 2019-03-12 17:26:41 20.7 16 27.5
003BFE9D 2019-03-12 16:53:55 20.7 16 27.7
003BFE9D 2019-03-12 16:21:11 20.7 16 28
003BFE9D 2019-03-12 15:48:23 20.7 16 28.2
003BFE9D 2019-03-12 15:15:38 20.6 16 28.5
003BFE9D 2019-03-12 14:42:52 20.6 16 28.7
003BFE9D 2019-03-12 14:10:07 20.6 16 28.9
003BFE9D 2019-03-12 13:37:20 20.6 16 28.9
003BFE9D 2019-03-12 13:04:36 20.6 16 28.9
003BFE9D 2019-03-12 12:31:50 20.6 16 29.1
003BFE9D 2019-03-12 11:59:04 20.5 16 29.3
003BFE9D 2019-03-12 11:26:19 20.5 16 29.5
003BFE9D 2019-03-12 10:53:34 20.4 16 29.5
003BFE9D 2019-03-12 10:20:47 20.4 16 29.7
003BFE9D 2019-03-12 09:48:01 20.3 16 29.9
003BFE9D 2019-03-12 09:15:16 20.3 16 29.9
003BFE9D 2019-03-12 08:42:30 20.3 16 29.9
003BFE9D 2019-03-12 08:09:44 20.3 16 29.9
003BFE9D 2019-03-12 07:36:58 20.3 16 29.9
003BFE9D 2019-03-12 07:04:12 20.3 16 29.9
003BFE9D 2019-03-12 06:31:27 20.4 16 29.7
003BFE9D 2019-03-12 05:58:10 20.4 16 29.7
003BFE9D 2019-03-12 05:25:25 20.4 16 29.5
003BFE9D 2019-03-12 04:52:40 20.4 16 29.3
003BFE9D 2019-03-12 04:19:54 20.4 16 29.1
003BFE9D 2019-03-12 03:47:09 20.4 16 28.9
003BFE9D 2019-03-12 03:14:24 20.4 16 28.7
003BFE9D 2019-03-12 02:41:39 20.4 17 28.5
003BFE9D 2019-03-12 01:36:08 20.5 17 28
003BFE9D 2019-03-12 01:03:22 20.5 17 27.7
003BFE9D 2019-03-12 00:30:36 20.5 17 27.7
003BFE9D 2019-03-11 23:57:50 20.5 17 27.5
003BFE9D 2019-03-11 23:25:04 20.5 17 27.5
003BFE9D 2019-03-11 22:52:18 20.5 17 27.2
003BFE9D 2019-03-11 22:19:32 20.6 17 26.9
003BFE9D 2019-03-11 21:46:46 20.6 17 26.5
003BFE9D 2019-03-11 21:14:01 20.6 17 26.1
003BFE9D 2019-03-11 20:41:16 20.6 17 25.7
003BFE9D 2019-03-11 20:08:30 20.6 17 25.3
003BFE9D 2019-03-11 19:35:44 20.7 16 24.9
003BFE9D 2019-03-11 19:02:58 20.7 16 24.3
003BFE9D 2019-03-11 18:30:12 20.7 16 23.7
003BFE9D 2019-03-11 17:57:26 20.7 17 22.9
003BFE9D 2019-03-11 17:24:39 20.7 17 23
003BFE9D 2019-03-11 16:51:53 20.7 17 22.1
003BFE9D 2019-03-11 16:19:07 20.7 17 21
003BFE9D 2019-03-11 15:46:21 20.6 17 21.3
003BFE9D 2019-03-11 15:13:34 20.6 17 21.3
003BFE9D 2019-03-11 14:40:47 20.6 17 21.4
003BFE9D 2019-03-11 14:08:00 20.5 17 21.4
003BFE9D 2019-03-11 13:35:14 20.5 17 21.4
003BFE9D 2019-03-11 13:02:27 20.5 17 21.5
003BFE9D 2019-03-11 12:29:41 20.5 17 21.7
003BFE9D 2019-03-11 11:56:54 20.4 17 21.6
003BFE9D 2019-03-11 11:24:07 20.4 17 21.6
003BFE9D 2019-03-11 10:51:20 20.4 17 21.6
003BFE9D 2019-03-11 10:18:35 20.4 17 21.5
003BFE9D 2019-03-11 09:45:46 20.3 18 21.5
003BFE9D 2019-03-11 09:12:59 20.3 18 21.6
003BFE9D 2019-03-11 08:40:13 20.3 18 21.6
003BFE9D 2019-03-11 08:07:27 20.3 18 21.8
003BFE9D 2019-03-11 07:34:41 20.3 18 21.7
003BFE9D 2019-03-11 07:01:54 20.3 18 21.7
003BFE9D 2019-03-11 06:29:08 20.3 18 21.8
003BFE9D 2019-03-11 05:56:22 20.3 19 21.7
003BFE9D 2019-03-11 05:23:35 20.4 19 21.8
003BFE9D 2019-03-11 04:50:48 20.4 19 21.8
003BFE9D 2019-03-11 04:18:02 20.4 19 21.8
003BFE9D 2019-03-11 03:45:15 20.4 19 21.8
003BFE9D 2019-03-11 03:12:28 20.6 19 21.7
003BFE9D 2019-03-11 03:11:12 20.4 19 21.7
003BFE9D 2019-03-11 02:38:27 20.4 19 21.6
003BFE9D 2019-03-11 02:05:41 20.4 19 21.7
003BFE9D 2019-03-11 01:32:54 20.4 19 21.8
003BFE9D 2019-03-11 01:00:07 20.4 20 21.8
003BFE9D 2019-03-11 00:27:21 20.4 20 22
003BFE9D 2019-03-10 23:54:35 20.4 20 21.8
003BFE9D 2019-03-10 23:21:49 20.5 20 21.8
003BFE9D 2019-03-10 22:49:01 20.5 20 21.8
003BFE9D 2019-03-10 22:16:14 20.5 20 21.9
003BFE9D 2019-03-10 21:43:27 20.5 20 21.8
003BFE9D 2019-03-10 21:10:40 20.5 20 21.8
003BFE9D 2019-03-10 20:37:53 20.6 20 20.7
003BFE9D 2019-03-10 20:05:06 20.6 20 20.6
003BFE9D 2019-03-10 19:32:18 20.6 21 20.7
003BFE9D 2019-03-10 18:59:31 20.6 21 20.7
003BFE9D 2019-03-10 18:26:44 20.6 21 20.9
003BFE9D 2019-03-10 17:53:57 20.7 21 20.9
003BFE9D 2019-03-10 17:21:11 20.6 21 20.9
003BFE9D 2019-03-10 16:48:24 20.6 21 21
003BFE9D 2019-03-10 16:15:37 20.6 21 20.9
003BFE9D 2019-03-10 15:42:50 20.6 22 21
003BFE9D 2019-03-10 15:10:03 20.6 22 21.1
003BFE9D 2019-03-10 14:37:17 20.6 23 21
003BFE9D 2019-03-10 14:04:30 20.6 24 21.1
003BFE9D 2019-03-10 13:31:42 20.5 24 21.1
003BFE9D 2019-03-10 12:58:56 20.5 24 21.1
003BFE9D 2019-03-10 12:26:10 20.5 24 21.2
003BFE9D 2019-03-10 11:53:24 20.5 24 21.1
003BFE9D 2019-03-10 11:20:37 20.5 24 21.3
003BFE9D 2019-03-10 10:47:50 20.5 24 21.4
003BFE9D 2019-03-10 10:15:04 20.5 24 21.6
003BFE9D 2019-03-10 09:42:17 20.5 24 21.6
003BFE9D 2019-03-10 09:09:30 20.5 24 21.7
003BFE9D 2019-03-10 08:36:43 20.5 24 21.5
003BFE9D 2019-03-10 08:03:57 20.5 24 21.5
003BFE9D 2019-03-10 07:31:10 20.5 24 21.6
003BFE9D 2019-03-10 06:58:23 20.5 24 21.6
003BFE9D 2019-03-10 06:25:37 20.5 24 21.8
003BFE9D 2019-03-10 05:52:50 20.5 24 21.6
003BFE9D 2019-03-10 05:20:04 20.5 24 21.5
003BFE9D 2019-03-10 04:47:18 20.5 24 21.3
003BFE9D 2019-03-10 04:14:32 20.5 24 21.3
003BFE9D 2019-03-10 03:41:46 20.5 24 21.2
003BFE9D 2019-03-10 03:09:00 20.5 24 21
003BFE9D 2019-03-10 02:36:14 20.5 24 20.9
003BFE9D 2019-03-10 02:03:28 20.6 24 20.9
003BFE9D 2019-03-10 01:30:42 20.6 24 22
003BFE9D 2019-03-10 00:57:55 20.6 24 21.9
003BFE9D 2019-03-10 00:25:09 20.6 24 21.9
003BFE9D 2019-03-09 23:51:49 20.6 24 22.1
003BFE9D 2019-03-09 23:19:03 20.6 24 22.1
003BFE9D 2019-03-09 22:46:17 20.6 24 22
003BFE9D 2019-03-09 22:13:31 20.6 24 22
003BFE9D 2019-03-09 21:40:44 20.6 23 22
003BFE9D 2019-03-09 21:07:58 20.6 23 22
003BFE9D 2019-03-09 20:35:11 20.6 23 21.9
003BFE9D 2019-03-09 20:02:26 20.7 23 21.8
003BFE9D 2019-03-09 19:29:39 20.6 23 22
003BFE9D 2019-03-09 18:56:52 20.7 23 22
003BFE9D 2019-03-09 18:24:06 20.7 23 21.9
003BFE9D 2019-03-09 17:51:20 20.7 23 22
003BFE9D 2019-03-09 17:18:34 20.7 23 22
003BFE9D 2019-03-09 16:45:47 20.7 23 22.2
003BFE9D 2019-03-09 16:12:59 20.7 24 22.3
003BFE9D 2019-03-09 15:40:13 20.7 24 22.4
003BFE9D 2019-03-09 15:07:27 20.7 24 22.3
003BFE9D 2019-03-09 14:34:40 20.7 24 22.4
003BFE9D 2019-03-09 14:01:54 20.7 24 22.4
003BFE9D 2019-03-09 13:29:07 20.6 24 22.6
003BFE9D 2019-03-09 12:56:19 20.6 24 22.6
003BFE9D 2019-03-09 12:23:33 20.6 24 21.7
003BFE9D 2019-03-09 11:50:47 20.6 24 21.7
003BFE9D 2019-03-09 11:18:00 20.6 24 21.8
003BFE9D 2019-03-09 10:45:14 20.6 24 21.7
003BFE9D 2019-03-09 10:12:27 20.5 25 21.6
003BFE9D 2019-03-09 09:39:41 20.5 25 21.6
003BFE9D 2019-03-09 09:06:54 20.5 25 21.8
003BFE9D 2019-03-09 08:34:07 20.5 25 21.6
003BFE9D 2019-03-09 08:01:21 20.5 25 21.5
003BFE9D 2019-03-09 07:28:35 20.6 25 21.6
003BFE9D 2019-03-09 06:55:48 20.6 26 21.7
003BFE9D 2019-03-09 06:23:01 20.6 26 21.6
003BFE9D 2019-03-09 05:50:14 20.6 26 21.4
003BFE9D 2019-03-09 05:17:27 20.6 26 21.5
003BFE9D 2019-03-09 04:44:41 20.7 26 21.4
003BFE9D 2019-03-09 04:11:54 20.6 26 21.4
003BFE9D 2019-03-09 03:39:08 20.7 26 22.2
003BFE9D 2019-03-09 03:06:22 20.7 26 22.1
003BFE9D 2019-03-09 02:33:35 20.7 26 22.1
003BFE9D 2019-03-09 02:00:49 20.7 26 22.3
003BFE9D 2019-03-09 01:28:03 20.7 26 23.1
003BFE9D 2019-03-09 00:55:17 20.8 26 23.2
003BFE9D 2019-03-09 00:22:30 20.8 27 23.2
003BFE9D 2019-03-08 23:49:44 20.8 26 23.2
003BFE9D 2019-03-08 23:16:57 20.8 27 23
003BFE9D 2019-03-08 22:44:11 20.9 27 23
003BFE9D 2019-03-08 22:11:25 20.9 27 22.9
003BFE9D 2019-03-08 21:38:39 20.9 27 22.9
003BFE9D 2019-03-08 21:05:52 20.9 27 22.8
003BFE9D 2019-03-08 20:32:33 20.9 27 22.8
003BFE9D 2019-03-08 19:59:47 21 27 22.6
003BFE9D 2019-03-08 19:27:00 21 27 22.7
003BFE9D 2019-03-08 18:54:13 21 27 22.7
003BFE9D 2019-03-08 18:21:27 21 27 22.5
003BFE9D 2019-03-08 17:48:41 21.1 26 22.5
003BFE9D 2019-03-08 17:15:56 21.1 27 22.6
003BFE9D 2019-03-08 16:43:10 21.1 27 22.7
003BFE9D 2019-03-08 16:10:24 21 27 22.7
003BFE9D 2019-03-08 15:37:37 21 27 22.9
003BFE9D 2019-03-08 15:04:52 21 26 23
003BFE9D 2019-03-08 14:32:06 21 26 22.3
003BFE9D 2019-03-08 13:59:21 20.9 26 22.3
003BFE9D 2019-03-08 13:26:35 20.9 26 22.2
003BFE9D 2019-03-08 12:53:50 20.8 26 22.2
003BFE9D 2019-03-08 12:21:05 20.8 26 21.2
003BFE9D 2019-03-08 11:48:20 20.8 25 21.3
003BFE9D 2019-03-08 11:15:34 20.8 25 22.3
003BFE9D 2019-03-08 10:42:50 20.7 25 23.1
003BFE9D 2019-03-08 10:10:04 20.7 25 23.2
003BFE9D 2019-03-08 09:37:19 20.7 24 23.2
003BFE9D 2019-03-08 09:04:35 20.7 24 23.3
003BFE9D 2019-03-08 08:31:50 20.7 24 23.3
003BFE9D 2019-03-08 07:59:05 20.7 23 23.2
003BFE9D 2019-03-08 07:26:19 20.7 23 23.1
003BFE9D 2019-03-08 06:53:34 20.7 23 23.2
003BFE9D 2019-03-08 06:20:48 20.7 23 23.9
003BFE9D 2019-03-08 05:48:03 20.7 23 23.9
003BFE9D 2019-03-08 05:15:17 20.7 23 24
003BFE9D 2019-03-08 04:42:30 20.7 23 23.9
003BFE9D 2019-03-08 04:09:44 20.7 23 23.9
003BFE9D 2019-03-08 03:36:59 20.7 23 23.8
003BFE9D 2019-03-08 03:04:13 20.7 23 23.8
003BFE9D 2019-03-08 02:31:28 20.7 22 23.7
003BFE9D 2019-03-08 01:58:42 20.7 22 23.6
003BFE9D 2019-03-08 01:25:55 20.7 22 23.5
003BFE9D 2019-03-08 00:53:10 20.7 22 23.3
003BFE9D 2019-03-08 00:20:24 20.8 22 23.2
003BFE9D 2019-03-07 23:47:38 20.8 22 23.1
003BFE9D 2019-03-07 23:14:52 20.8 22 23
003BFE9D 2019-03-07 22:42:06 20.8 22 22.9
003BFE9D 2019-03-07 22:09:20 20.8 22 22.7
003BFE9D 2019-03-07 21:36:33 20.9 22 21.7
003BFE9D 2019-03-07 21:03:47 20.9 22 20.3
003BFE9D 2019-03-07 20:31:03 20.9 22 20.1
003BFE9D 2019-03-07 19:58:15 20.9 22 20.1
003BFE9D 2019-03-07 19:25:30 21 22 20.1
003BFE9D 2019-03-07 18:52:44 21 21 20
003BFE9D 2019-03-07 18:19:58 21.1 21 20
003BFE9D 2019-03-07 17:47:11 21.1 21 20
003BFE9D 2019-03-07 17:13:52 21.2 21 18
003BFE9D 2019-03-07 16:41:07 21.1 21 17.7
003BFE9D 2019-03-07 16:08:21 21.1 21 17.2
003BFE9D 2019-03-07 15:35:35 21.1 21 17
003BFE9D 2019-03-07 15:02:49 21.1 20 17
003BFE9D 2019-03-07 14:30:04 21 20 17.1
003BFE9D 2019-03-07 13:57:18 21 20 16.5
003BFE9D 2019-03-07 13:24:32 20.9 19 16.5
003BFE9D 2019-03-07 12:51:47 20.9 19 16.8
003BFE9D 2019-03-07 12:19:02 20.9 18 16.8
003BFE9D 2019-03-07 11:46:17 20.8 18 16.7
003BFE9D 2019-03-07 11:13:31 20.8 18 16.7
003BFE9D 2019-03-07 10:40:46 20.7 18 16.6
003BFE9D 2019-03-07 10:08:01 20.7 17 16.6
003BFE9D 2019-03-07 09:35:17 20.7 16 16.6
003BFE9D 2019-03-07 09:02:31 20.7 16 16.7
003BFE9D 2019-03-07 08:29:46 20.7 16 16.9
003BFE9D 2019-03-07 07:57:01 20.7 16 16.8
003BFE9D 2019-03-07 07:24:16 20.7 15 16.8
003BFE9D 2019-03-07 06:51:30 20.7 15 16.7
003BFE9D 2019-03-07 06:18:45 20.7 15 16.7
003BFE9D 2019-03-07 05:46:00 20.7 15 17
003BFE9D 2019-03-07 05:13:15 20.7 14 17
003BFE9D 2019-03-07 04:40:29 20.6 14 17.4
003BFE9D 2019-03-07 04:07:44 20.7 14 17.2
003BFE9D 2019-03-07 03:34:58 20.6 14 16.9
003BFE9D 2019-03-07 03:02:13 20.6 14 16.9
003BFE9D 2019-03-07 02:29:28 20.7 13 17.4
003BFE9D 2019-03-07 01:56:42 20.7 13 17.5
003BFE9D 2019-03-07 01:23:57 20.7 13 17.7
003BFE9D 2019-03-07 00:51:11 20.6 13 17.9
003BFE9D 2019-03-07 00:18:25 20.6 13 17.9
003BFE9D 2019-03-06 23:45:39 20.7 13 18
003BFE9D 2019-03-06 23:12:53 20.7 13 17.7
003BFE9D 2019-03-06 22:40:07 20.7 12 17.6
003BFE9D 2019-03-06 22:07:23 20.7 12 18
003BFE9D 2019-03-06 21:34:38 20.7 12 18.2
003BFE9D 2019-03-06 21:01:53 20.7 12 18.2
003BFE9D 2019-03-06 20:29:08 20.7 12 20.2
003BFE9D 2019-03-06 19:56:22 20.7 12 20.2
003BFE9D 2019-03-06 19:23:36 20.8 12 20.2
003BFE9D 2019-03-06 18:50:50 20.8 12 20.3
003BFE9D 2019-03-06 18:18:05 20.9 12 20.4
003BFE9D 2019-03-06 17:45:19 20.9 12 20.5
003BFE9D 2019-03-06 17:12:33 21 12 20.4
003BFE9D 2019-03-06 16:39:48 20.9 12 20.5
003BFE9D 2019-03-06 16:07:00 20.9 12 20.4
003BFE9D 2019-03-06 15:34:14 20.9 12 20.5
003BFE9D 2019-03-06 15:01:28 20.9 12 20.4
003BFE9D 2019-03-06 14:28:41 20.8 12 20.6
003BFE9D 2019-03-06 13:55:23 20.7 11 20.6
003BFE9D 2019-03-06 13:22:38 20.6 11 20.5
003BFE9D 2019-03-06 12:49:52 20.7 11 20.5
003BFE9D 2019-03-06 12:17:06 20.6 12 20.6
003BFE9D 2019-03-06 11:44:20 20.6 12 20.7
003BFE9D 2019-03-06 11:11:35 20.6 12 20.7
003BFE9D 2019-03-06 10:38:49 20.5 12 20.7
003BFE9D 2019-03-06 10:06:03 20.4 12 20.9
003BFE9D 2019-03-06 09:33:18 20.3 12 21
003BFE9D 2019-03-06 09:00:32 20.4 12 20.8
003BFE9D 2019-03-06 08:27:45 20.4 12 21.9
003BFE9D 2019-03-06 07:54:58 20.4 12 21.9
003BFE9D 2019-03-06 07:22:12 20.4 12 20.7
003BFE9D 2019-03-06 06:49:25 20.4 12 20.7
003BFE9D 2019-03-06 06:16:40 20.5 13 20.6
003BFE9D 2019-03-06 05:43:53 20.5 13 20.5
003BFE9D 2019-03-06 05:11:06 20.5 13 20.4
003BFE9D 2019-03-06 04:38:20 20.5 13 20.4
003BFE9D 2019-03-06 04:05:34 20.5 13 20.4
003BFE9D 2019-03-06 03:32:47 20.5 13 20.2
003BFE9D 2019-03-06 03:00:00 20.6 13 20.2
003BFE9D 2019-03-06 02:27:14 20.6 13 20.1
003BFE9D 2019-03-06 01:54:28 20.6 13 20.1
003BFE9D 2019-03-06 01:21:43 20.6 13 19.9
003BFE9D 2019-03-06 00:48:59 20.6 13 19.9
003BFE9D 2019-03-06 00:16:10 20.7 13 19.8
003BFE9D 2019-03-05 23:43:25 20.7 13 19.7
003BFE9D 2019-03-05 23:10:39 20.7 14 19.4
003BFE9D 2019-03-05 22:37:55 20.8 14 19.2
003BFE9D 2019-03-05 22:05:10 20.8 14 19.3
003BFE9D 2019-03-05 21:32:24 20.8 14 19.2
003BFE9D 2019-03-05 20:59:39 20.8 14 19
003BFE9D 2019-03-05 20:26:53 20.8 14 18.9
003BFE9D 2019-03-05 19:54:07 20.8 14 19
003BFE9D 2019-03-05 19:21:21 20.8 14 16.2
003BFE9D 2019-03-05 18:48:34 20.9 14 16.6
003BFE9D 2019-03-05 18:15:47 20.9 14 16.8
003BFE9D 2019-03-05 17:43:02 21 14 16.6
003BFE9D 2019-03-05 17:10:16 21 15 16.7
003BFE9D 2019-03-05 16:37:30 21 15 16.8
003BFE9D 2019-03-05 16:04:48 21 16 17.1
003BFE9D 2019-03-05 15:32:00 20.9 16 16.7
003BFE9D 2019-03-05 14:59:12 20.7 16 16.8
003BFE9D 2019-03-05 14:26:30 20.6 17 16.8
003BFE9D 2019-03-05 13:53:41 20.6 17 16.8
003BFE9D 2019-03-05 13:20:54 20.6 17 16.8
003BFE9D 2019-03-05 12:48:10 20.6 17 16.9
003BFE9D 2019-03-05 12:15:25 20.5 17 16.8
003BFE9D 2019-03-05 11:42:39 20.5 18 16.9
003BFE9D 2019-03-05 11:09:53 20.5 18 16.8
003BFE9D 2019-03-05 10:36:35 20.5 18 19.4
003BFE9D 2019-03-05 10:03:49 20.5 18 19.4
003BFE9D 2019-03-05 09:31:05 20.5 18 19.7
003BFE9D 2019-03-05 08:58:19 20.4 18 19.5
003BFE9D 2019-03-05 08:25:31 20.4 18 19.5
003BFE9D 2019-03-05 07:52:45 20.5 19 19.5
003BFE9D 2019-03-05 07:19:59 20.5 19 19.5
003BFE9D 2019-03-05 06:47:13 20.5 19 19.6
003BFE9D 2019-03-05 06:14:26 20.5 19 19.5
003BFE9D 2019-03-05 05:41:41 20.5 19 19.4
003BFE9D 2019-03-05 05:08:54 20.5 19 19.2
003BFE9D 2019-03-05 04:36:09 20.5 19 19
003BFE9D 2019-03-05 04:03:22 20.5 19 19
003BFE9D 2019-03-05 03:30:36 20.5 19 19
003BFE9D 2019-03-05 02:57:49 20.5 19 19
003BFE9D 2019-03-05 02:25:05 20.5 19 18.9
003BFE9D 2019-03-05 01:52:19 20.5 19 18.9
003BFE9D 2019-03-05 01:19:33 20.5 19 18.9
003BFE9D 2019-03-05 00:46:46 20.5 19 18.8
003BFE9D 2019-03-05 00:14:00 20.5 19 18.7
003BFE9D 2019-03-04 23:41:16 20.5 18 18.6
003BFE9D 2019-03-04 23:08:27 20.5 18 18.5
003BFE9D 2019-03-04 22:35:40 20.5 18 18.7
003BFE9D 2019-03-04 22:02:54 20.5 18 18.7
003BFE9D 2019-03-04 21:30:07 20.5 18 18.7
003BFE9D 2019-03-04 20:57:20 20.5 18 15.9
003BFE9D 2019-03-04 20:24:35 20.5 18 15.9
003BFE9D 2019-03-04 19:51:49 20.5 18 15.3
003BFE9D 2019-03-04 19:19:02 20.5 18 15.3
003BFE9D 2019-03-04 18:46:18 20.5 18 15.4
003BFE9D 2019-03-04 18:13:32 20.5 18 15.9
003BFE9D 2019-03-04 17:40:43 20.5 18 18.8
003BFE9D 2019-03-04 17:07:57 20.5 18 18.9
003BFE9D 2019-03-04 16:35:12 20.5 18 18.8
003BFE9D 2019-03-04 16:02:25 20.5 18 19.1
003BFE9D 2019-03-04 15:29:40 20.5 18 20.8
003BFE9D 2019-03-04 14:56:54 20.4 17 20.9
003BFE9D 2019-03-04 14:24:09 20.4 17 20.9
003BFE9D 2019-03-04 13:51:23 20.4 17 21
003BFE9D 2019-03-04 13:18:37 20.4 17 21
003BFE9D 2019-03-04 12:45:52 20.3 17 21
003BFE9D 2019-03-04 12:13:06 20.3 17 20.9
003BFE9D 2019-03-04 11:40:20 20.3 17 20.9
003BFE9D 2019-03-04 11:07:34 20.2 17 21
003BFE9D 2019-03-04 10:34:51 20.2 17 21.1
003BFE9D 2019-03-04 10:02:02 20.1 17 21.1
003BFE9D 2019-03-04 09:29:18 20.1 17 21.1
003BFE9D 2019-03-04 08:56:30 20 17 21.2
003BFE9D 2019-03-04 08:23:45 20 18 21.2
003BFE9D 2019-03-04 07:50:58 20 18 21.2
003BFE9D 2019-03-04 07:17:40 20 18 21.2
003BFE9D 2019-03-04 06:44:53 20 18 21.2
003BFE9D 2019-03-04 06:12:07 20 18 21.2
003BFE9D 2019-03-04 05:39:21 20 18 21.2
003BFE9D 2019-03-04 05:06:36 20.1 18 21.1
003BFE9D 2019-03-04 04:33:50 20 18 19.5
003BFE9D 2019-03-04 04:01:03 20.1 18 19.5
003BFE9D 2019-03-04 03:28:18 20.1 18 19.5
003BFE9D 2019-03-04 02:55:31 20.1 18 19.3
003BFE9D 2019-03-04 02:22:45 20.1 18 16.8
003BFE9D 2019-03-04 01:49:59 20 18 16.7
003BFE9D 2019-03-04 01:17:13 20.1 18 16.8
003BFE9D 2019-03-04 00:44:26 20.1 18 16.5
003BFE9D 2019-03-04 00:11:40 20.1 17 16.7
003BFE9D 2019-03-03 23:38:54 20.1 17 16.6
003BFE9D 2019-03-03 23:06:08 20.1 18 16.8
003BFE9D 2019-03-03 22:33:22 20.1 17 16.8
003BFE9D 2019-03-03 22:00:36 20.1 17 17
003BFE9D 2019-03-03 21:27:50 20.1 17 17.1
003BFE9D 2019-03-03 20:55:05 20.1 17 17.2
003BFE9D 2019-03-03 20:22:20 20.1 18 17.4
003BFE9D 2019-03-03 19:49:35 20.1 18 17.2
003BFE9D 2019-03-03 19:16:49 20.2 18 17.2
003BFE9D 2019-03-03 18:44:04 20.2 18 17.1
003BFE9D 2019-03-03 18:11:18 20.2 18 17.1
003BFE9D 2019-03-03 17:38:32 20.2 18 19.5
003BFE9D 2019-03-03 17:05:46 20.2 18 19.6
003BFE9D 2019-03-03 16:32:59 20.2 18 19.6
003BFE9D 2019-03-03 16:00:13 20.2 18 19.6
003BFE9D 2019-03-03 15:27:27 20.2 18 19.6
003BFE9D 2019-03-03 14:54:41 20.2 18 19.8
003BFE9D 2019-03-03 14:21:55 20.2 18 20
003BFE9D 2019-03-03 13:49:09 20.2 18 20
003BFE9D 2019-03-03 13:16:23 20.2 18 19.9
003BFE9D 2019-03-03 12:43:38 20.2 18 19.9
003BFE9D 2019-03-03 12:10:52 20.2 18 21.3
003BFE9D 2019-03-03 11:38:07 20.2 18 21.3
003BFE9D 2019-03-03 11:05:20 20.2 18 21.3
003BFE9D 2019-03-03 10:32:34 20.2 18 21.3
003BFE9D 2019-03-03 09:59:48 20.2 18 21.3
003BFE9D 2019-03-03 09:27:02 20.2 18 21.3
003BFE9D 2019-03-03 08:54:15 20.2 18 21.4
003BFE9D 2019-03-03 08:21:28 20.2 18 21.3
003BFE9D 2019-03-03 07:48:42 20.2 18 21.2
003BFE9D 2019-03-03 07:15:55 20.2 18 21.2
003BFE9D 2019-03-03 06:43:09 20.2 18 22.3
003BFE9D 2019-03-03 06:10:23 20.3 18 22.3
003BFE9D 2019-03-03 05:37:38 20.3 18 22.3
003BFE9D 2019-03-03 05:04:53 20.3 18 22.3
003BFE9D 2019-03-03 04:32:07 20.5 18 22.4
003BFE9D 2019-03-03 04:30:51 20.3 18 21.4
003BFE9D 2019-03-03 03:58:06 20.3 18 21.3
003BFE9D 2019-03-03 03:25:20 20.3 18 21.4
003BFE9D 2019-03-03 02:52:33 20.3 18 21.4
003BFE9D 2019-03-03 02:19:50 20.3 18 21.4
003BFE9D 2019-03-03 01:47:02 20.3 18 21.4
003BFE9D 2019-03-03 01:14:18 20.3 18 21.3
003BFE9D 2019-03-03 00:41:32 20.3 18 21.3
003BFE9D 2019-03-03 00:08:46 20.3 18 21.4
003BFE9D 2019-03-02 23:35:59 20.3 18 21.4
003BFE9D 2019-03-02 23:03:15 20.4 18 21.4
003BFE9D 2019-03-02 22:30:29 20.3 18 21.4
003BFE9D 2019-03-02 21:57:43 20.4 18 21.4
003BFE9D 2019-03-02 21:24:57 20.4 17 21.4
003BFE9D 2019-03-02 20:52:11 20.4 17 21.4
003BFE9D 2019-03-02 20:19:24 20.4 17 21.4
003BFE9D 2019-03-02 19:46:38 20.4 17 21.3
003BFE9D 2019-03-02 19:13:53 20.5 17 21.4
003BFE9D 2019-03-02 18:41:06 20.5 17 21.4
003BFE9D 2019-03-02 18:08:22 20.5 17 21.4
003BFE9D 2019-03-02 17:35:35 20.5 17 20.1
003BFE9D 2019-03-02 17:02:50 20.5 17 20.3
003BFE9D 2019-03-02 16:30:05 20.5 17 20.3
003BFE9D 2019-03-02 15:57:18 20.5 17 20.2
003BFE9D 2019-03-02 15:24:31 20.5 17 20.3
003BFE9D 2019-03-02 14:51:47 20.4 17 20.2
003BFE9D 2019-03-02 14:18:58 20.4 16 20.2
003BFE9D 2019-03-02 13:46:12 20.4 16 21.5
003BFE9D 2019-03-02 13:13:26 20.4 16 21.5
003BFE9D 2019-03-02 12:40:42 20.4 16 21.4
003BFE9D 2019-03-02 12:07:55 20.4 16 21.4
003BFE9D 2019-03-02 11:35:07 20.4 16 21.5
003BFE9D 2019-03-02 11:02:22 20.4 16 21.5
003BFE9D 2019-03-02 10:29:36 20.3 16 21.5
003BFE9D 2019-03-02 09:56:51 20.4 16 20.1
003BFE9D 2019-03-02 09:24:05 20.4 15 20.1
003BFE9D 2019-03-02 08:51:19 20.4 15 20.2
003BFE9D 2019-03-02 08:18:33 20.4 15 20.2
003BFE9D 2019-03-02 07:45:47 20.4 15 20.2
003BFE9D 2019-03-02 07:13:03 20.4 15 20.2
003BFE9D 2019-03-02 06:40:15 20.4 15 20.2
003BFE9D 2019-03-02 06:07:28 20.4 15 20.2
003BFE9D 2019-03-02 05:34:42 20.4 15 20.2
003BFE9D 2019-03-02 05:01:56 20.5 15 20.3
003BFE9D 2019-03-02 04:29:09 20.5 15 20.2
003BFE9D 2019-03-02 03:56:23 20.5 15 20
003BFE9D 2019-03-02 03:23:38 20.5 14 20
003BFE9D 2019-03-02 02:50:54 20.6 14 20.1
003BFE9D 2019-03-02 02:18:08 20.6 14 20
003BFE9D 2019-03-02 01:45:20 20.6 14 19.9
003BFE9D 2019-03-02 01:12:02 20.7 14 20.4
003BFE9D 2019-03-02 00:39:14 20.7 14 18.6
003BFE9D 2019-03-02 00:06:28 20.7 14 18.6
003BFE9D 2019-03-01 23:33:42 20.8 14 18.9
003BFE9D 2019-03-01 23:00:56 20.8 14 18.8
003BFE9D 2019-03-01 22:28:10 20.9 14 18.9
003BFE9D 2019-03-01 21:55:22 20.9 14 19.1
003BFE9D 2019-03-01 21:22:36 20.9 14 18.9
003BFE9D 2019-03-01 20:49:52 21 14 20.7
003BFE9D 2019-03-01 20:17:04 21 13 20.9
003BFE9D 2019-03-01 19:44:18 21 13 21
003BFE9D 2019-03-01 19:11:32 21 13 20.9
003BFE9D 2019-03-01 18:38:47 21 13 21.1
003BFE9D 2019-03-01 18:06:01 21.1 13 21.2
003BFE9D 2019-03-01 17:33:15 21.2 14 21.1
003BFE9D 2019-03-01 17:00:29 21.3 14 21.2
003BFE9D 2019-03-01 16:27:42 21.3 15 21.3
003BFE9D 2019-03-01 15:54:56 21.2 15 21.2
003BFE9D 2019-03-01 15:22:09 21.1 15 21.3
003BFE9D 2019-03-01 14:49:23 20.9 16 21.3
003BFE9D 2019-03-01 14:16:36 20.9 16 21.3
003BFE9D 2019-03-01 13:43:51 20.9 16 21.3
003BFE9D 2019-03-01 13:11:04 20.9 16 21.5
003BFE9D 2019-03-01 12:38:18 20.9 17 21.6
003BFE9D 2019-03-01 12:05:32 20.9 17 21.5
003BFE9D 2019-03-01 11:32:46 20.9 17 21.3
003BFE9D 2019-03-01 11:00:00 20.8 17 21.3
003BFE9D 2019-03-01 10:27:14 20.7 17 21.3
003BFE9D 2019-03-01 09:54:27 20.6 17 21.3
003BFE9D 2019-03-01 09:21:41 20.5 18 21.5
003BFE9D 2019-03-01 08:48:55 20.5 18 21.4
003BFE9D 2019-03-01 08:16:09 20.5 18 21.5
003BFE9D 2019-03-01 07:43:22 20.6 18 21.6
003BFE9D 2019-03-01 07:10:37 20.6 19 21.6
003BFE9D 2019-03-01 06:37:51 20.6 19 21.6
003BFE9D 2019-03-01 06:05:05 20.6 19 21.4
003BFE9D 2019-03-01 05:32:20 20.6 19 21.5
003BFE9D 2019-03-01 04:59:32 20.6 20 21.5
003BFE9D 2019-03-01 04:26:45 20.6 20 21.4
003BFE9D 2019-03-01 03:53:58 20.6 20 21.5
003BFE9D 2019-03-01 03:21:12 20.6 20 21.4
003BFE9D 2019-03-01 02:48:25 20.6 20 21.4
003BFE9D 2019-03-01 02:15:40 20.7 21 21.3
003BFE9D 2019-03-01 01:42:53 20.7 21 21.2
003BFE9D 2019-03-01 01:10:06 20.7 21 21.2
003BFE9D 2019-03-01 00:37:21 20.7 22 21
003BFE9D 2019-03-01 00:04:34 20.7 22 20.9
003BFE9D 2019-02-28 23:31:48 20.8 22 20.8
003BFE9D 2019-02-28 22:59:02 20.8 22 20.5
003BFE9D 2019-02-28 22:26:16 20.8 23 20.8
003BFE9D 2019-02-28 21:52:57 20.9 23 20.7
003BFE9D 2019-02-28 21:20:11 20.9 23 20.7
003BFE9D 2019-02-28 20:47:24 20.9 23 20.6
003BFE9D 2019-02-28 20:14:37 21 24 20.3
003BFE9D 2019-02-28 19:41:50 21 24 20.3
003BFE9D 2019-02-28 19:09:03 21.1 24 20.2
003BFE9D 2019-02-28 18:36:16 21.1 24 20
003BFE9D 2019-02-28 18:03:29 21.2 25 17.9
003BFE9D 2019-02-28 17:30:43 21.3 25 17.7
003BFE9D 2019-02-28 16:57:56 21.4 26 17.4
003BFE9D 2019-02-28 16:25:11 21.4 26 17.9
003BFE9D 2019-02-28 15:52:24 21.3 26 18
003BFE9D 2019-02-28 15:19:38 21.3 25 18.1
003BFE9D 2019-02-28 14:46:52 21.3 25 17.8
003BFE9D 2019-02-28 14:14:05 21.2 25 17.9
003BFE9D 2019-02-28 13:41:18 21.2 25 20
003BFE9D 2019-02-28 13:08:31 21.2 24 20.1
003BFE9D 2019-02-28 12:35:47 21.2 24 20.1
003BFE9D 2019-02-28 12:02:59 21.1 24 20.3
003BFE9D 2019-02-28 11:30:12 21.1 24 20.4
003BFE9D 2019-02-28 10:57:26 21 24 20.5
003BFE9D 2019-02-28 10:24:39 20.8 23 20.5
003BFE9D 2019-02-28 09:51:53 20.8 23 20.5
003BFE9D 2019-02-28 09:19:07 20.7 23 21.6
003BFE9D 2019-02-28 08:46:20 20.7 22 21.6
003BFE9D 2019-02-28 08:13:33 20.7 22 21.6
003BFE9D 2019-02-28 07:40:47 20.7 22 21.5
003BFE9D 2019-02-28 07:08:00 20.7 22 21.5
003BFE9D 2019-02-28 06:35:14 20.7 22 21.6
003BFE9D 2019-02-28 06:02:26 20.8 22 21.6
003BFE9D 2019-02-28 05:29:40 20.8 22 21.5
003BFE9D 2019-02-28 04:56:53 20.8 22 21.6
003BFE9D 2019-02-28 04:24:06 20.8 22 21.7
003BFE9D 2019-02-28 03:51:18 20.8 22 21.7
003BFE9D 2019-02-28 03:18:32 20.8 22 21.8
003BFE9D 2019-02-28 02:45:45 20.8 22 21.8
003BFE9D 2019-02-28 02:12:58 20.8 22 21.7
003BFE9D 2019-02-28 01:40:12 20.8 22 21.7
003BFE9D 2019-02-28 01:07:26 20.8 22 21.7
003BFE9D 2019-02-28 00:34:39 20.9 22 21.6
003BFE9D 2019-02-28 00:01:53 20.9 23 20.3
003BFE9D 2019-02-27 23:29:06 20.9 23 20.2
003BFE9D 2019-02-27 22:56:24 21 23 20.2
003BFE9D 2019-02-27 22:23:33 21 23 20.1
003BFE9D 2019-02-27 21:50:50 21.1 23 20.1
003BFE9D 2019-02-27 21:18:02 21.1 23 20
003BFE9D 2019-02-27 20:45:15 21.1 23 20
003BFE9D 2019-02-27 20:12:27 21.2 23 20.1
003BFE9D 2019-02-27 19:39:41 21.2 23 18.1
003BFE9D 2019-02-27 19:06:54 21.3 24 18.1
003BFE9D 2019-02-27 18:33:38 21.4 24 18.1
003BFE9D 2019-02-27 18:00:53 21.5 24 18.1
003BFE9D 2019-02-27 17:28:04 21.6 25 18.3
003BFE9D 2019-02-27 16:55:16 21.7 25 18.2
003BFE9D 2019-02-27 16:22:30 21.6 26 18.1
003BFE9D 2019-02-27 15:49:42 21.6 26 18.2
003BFE9D 2019-02-27 15:16:55 21.5 26 18.2
003BFE9D 2019-02-27 14:44:08 21.4 26 18.1
003BFE9D 2019-02-27 14:11:21 21.3 26 18
003BFE9D 2019-02-27 13:38:35 21.2 25 19.9
003BFE9D 2019-02-27 13:05:47 21.2 25 19.7
003BFE9D 2019-02-27 12:33:00 21.2 25 19.6
003BFE9D 2019-02-27 12:00:13 21.2 25 19.7
003BFE9D 2019-02-27 11:27:27 21.1 25 19.6
003BFE9D 2019-02-27 10:54:40 21.1 25 19.5
003BFE9D 2019-02-27 10:21:55 21 25 19.5
003BFE9D 2019-02-27 09:49:08 20.9 24 19.7
003BFE9D 2019-02-27 09:16:22 20.9 24 19.7
003BFE9D 2019-02-27 08:43:36 20.8 24 19.6
003BFE9D 2019-02-27 08:10:50 20.9 24 19.6
003BFE9D 2019-02-27 07:38:04 20.9 24 19.5
003BFE9D 2019-02-27 07:05:18 20.9 23 19.5
003BFE9D 2019-02-27 06:32:32 20.9 23 19.5
003BFE9D 2019-02-27 05:59:45 20.9 23 19.4
003BFE9D 2019-02-27 05:26:59 20.9 23 19.4
003BFE9D 2019-02-27 04:54:13 21 23 19.4
003BFE9D 2019-02-27 04:21:28 21 23 19.4
003BFE9D 2019-02-27 03:48:40 21 23 19.2
003BFE9D 2019-02-27 03:15:54 21 23 19.4
003BFE9D 2019-02-27 02:43:06 21 23 19.5
003BFE9D 2019-02-27 02:10:21 21 24 19.6
003BFE9D 2019-02-27 01:37:31 21.1 23 19.5
003BFE9D 2019-02-27 01:04:44 21.1 24 19.4
003BFE9D 2019-02-27 00:31:57 21.2 24 19.3
003BFE9D 2019-02-26 23:59:11 21.2 24 16.7
003BFE9D 2019-02-26 23:26:21 21.3 24 16.6
003BFE9D 2019-02-26 22:53:34 21.3 24 16.6
003BFE9D 2019-02-26 22:20:47 21.4 24 16.2
003BFE9D 2019-02-26 21:48:00 21.4 24 19.1
003BFE9D 2019-02-26 21:15:14 21.5 24 20.8
003BFE9D 2019-02-26 20:42:27 21.5 24 22
003BFE9D 2019-02-26 20:09:40 21.6 24 22.9
003BFE9D 2019-02-26 19:36:54 21.7 24 23.7
003BFE9D 2019-02-26 19:04:06 21.7 24 24.4
003BFE9D 2019-02-26 18:31:20 21.8 24 24.9
003BFE9D 2019-02-26 17:58:33 21.9 24 25.5
003BFE9D 2019-02-26 17:25:47 21.9 24 25.9
003BFE9D 2019-02-26 16:53:01 21.9 25 26.3
003BFE9D 2019-02-26 16:20:14 21.8 25 26.7
003BFE9D 2019-02-26 15:47:27 21.7 25 27
003BFE9D 2019-02-26 15:14:16 21.6 25 27.6
003BFE9D 2019-02-26 14:41:31 21.5 24 27.9
003BFE9D 2019-02-26 14:08:44 21.5 24 28.2
003BFE9D 2019-02-26 13:35:58 21.5 25 28.4
003BFE9D 2019-02-26 13:03:13 21.4 24 28.6
003BFE9D 2019-02-26 12:30:27 21.4 24 28.8
003BFE9D 2019-02-26 11:57:41 21.3 24 29.1
003BFE9D 2019-02-26 11:24:54 21.2 24 29.3
003BFE9D 2019-02-26 10:52:10 21.1 24 29.5
003BFE9D 2019-02-26 10:19:24 21 24 29.6
003BFE9D 2019-02-26 09:46:35 20.9 24 29.8
003BFE9D 2019-02-26 09:13:49 20.9 23 30
003BFE9D 2019-02-26 08:41:04 20.9 23 30
003BFE9D 2019-02-26 08:08:18 20.9 23 30
003BFE9D 2019-02-26 07:35:31 20.9 23 30
003BFE9D 2019-02-26 07:02:46 20.9 23 29.8
003BFE9D 2019-02-26 06:29:59 20.9 22 29.7
003BFE9D 2019-02-26 05:57:13 20.9 22 29.7
003BFE9D 2019-02-26 05:24:27 20.9 22 29.5
003BFE9D 2019-02-26 04:51:41 20.9 22 29.3
003BFE9D 2019-02-26 04:18:54 20.9 22 29.1
003BFE9D 2019-02-26 03:46:07 20.9 22 28.9
003BFE9D 2019-02-26 03:13:20 21 22 28.7
003BFE9D 2019-02-26 02:40:32 21 22 28.5
003BFE9D 2019-02-26 02:07:46 21 22 28.2
003BFE9D 2019-02-26 01:34:59 21 22 28
003BFE9D 2019-02-26 01:02:11 21.1 22 27.7
003BFE9D 2019-02-26 00:29:24 21.1 22 27.5
003BFE9D 2019-02-25 23:56:38 21.1 22 27.1
003BFE9D 2019-02-25 23:23:50 21.1 21 26.8
003BFE9D 2019-02-25 22:51:03 21.2 21 26.4
003BFE9D 2019-02-25 22:18:17 21.2 21 26
003BFE9D 2019-02-25 21:45:30 21.3 21 25.6
003BFE9D 2019-02-25 21:12:44 21.3 21 25.1
003BFE9D 2019-02-25 20:39:58 21.4 21 24.5
003BFE9D 2019-02-25 20:07:12 21.5 21 23.9
003BFE9D 2019-02-25 19:34:26 21.5 21 23.1
003BFE9D 2019-02-25 19:01:40 21.5 21 22.2
003BFE9D 2019-02-25 18:28:54 21.6 22 21.1
003BFE9D 2019-02-25 17:56:07 21.6 22 19.5
003BFE9D 2019-02-25 17:23:21 21.6 22 19.5
003BFE9D 2019-02-25 16:50:33 21.6 22 19.4
003BFE9D 2019-02-25 16:17:46 21.6 22 16.9
003BFE9D 2019-02-25 15:45:00 21.6 23 16.7
003BFE9D 2019-02-25 15:12:14 21.5 23 16.7
003BFE9D 2019-02-25 14:06:39 21.3 23 16.4
003BFE9D 2019-02-25 13:33:54 21.2 23 16.6
003BFE9D 2019-02-25 13:01:06 21.1 23 16.2
003BFE9D 2019-02-25 12:28:18 21.1 22 15.8
003BFE9D 2019-02-25 11:54:58 21 23 15.6
003BFE9D 2019-02-25 11:22:15 20.9 23 15.1
003BFE9D 2019-02-25 10:49:25 20.9 23 14.7
003BFE9D 2019-02-25 10:16:38 20.8 23 14.9
003BFE9D 2019-02-25 09:43:51 20.6 22 14.8
003BFE9D 2019-02-25 09:11:05 20.6 22 14.9
003BFE9D 2019-02-25 08:38:20 20.6 22 15
003BFE9D 2019-02-25 08:05:36 20.6 22 15
003BFE9D 2019-02-25 07:32:46 20.6 22 15
003BFE9D 2019-02-25 07:00:01 20.6 22 14.8
003BFE9D 2019-02-25 06:27:12 20.6 22 14.6
003BFE9D 2019-02-25 05:54:27 20.6 22 14.6
003BFE9D 2019-02-25 05:21:39 20.6 22 14.9
003BFE9D 2019-02-25 04:48:52 20.6 22 14.9
003BFE9D 2019-02-25 04:16:06 20.6 22 14.8
003BFE9D 2019-02-25 03:43:19 20.6 23 15
003BFE9D 2019-02-25 03:10:32 20.6 23 15.1
003BFE9D 2019-02-25 02:37:45 20.6 23 15.1
003BFE9D 2019-02-25 02:04:58 20.6 23 15.2
003BFE9D 2019-02-25 01:32:11 20.6 23 15.2
003BFE9D 2019-02-25 00:59:25 20.6 23 15.3
003BFE9D 2019-02-25 00:26:38 20.7 23 15.1
003BFE9D 2019-02-24 23:53:53 20.7 23 15.3
003BFE9D 2019-02-24 23:21:05 20.7 23 15.4
003BFE9D 2019-02-24 22:48:18 20.7 23 15
003BFE9D 2019-02-24 22:15:31 20.7 23 15.3
003BFE9D 2019-02-24 21:42:43 20.7 23 15.3
003BFE9D 2019-02-24 21:09:56 20.7 23 15.2
003BFE9D 2019-02-24 20:37:10 20.7 23 15.1
003BFE9D 2019-02-24 20:04:24 20.8 23 15.2
003BFE9D 2019-02-24 19:31:37 20.8 23 15
003BFE9D 2019-02-24 18:58:50 20.8 23 15
003BFE9D 2019-02-24 18:26:03 20.8 23 15
003BFE9D 2019-02-24 17:53:17 20.8 23 14.8
003BFE9D 2019-02-24 17:20:30 20.8 23 14.8
003BFE9D 2019-02-24 16:47:44 20.7 22 15.1
003BFE9D 2019-02-24 16:14:58 20.7 23 15.2
003BFE9D 2019-02-24 15:42:12 20.8 22 14.9
003BFE9D 2019-02-24 15:09:27 20.8 22 14.9
003BFE9D 2019-02-24 14:36:41 20.8 22 14.9
003BFE9D 2019-02-24 14:03:54 20.7 22 14.8
003BFE9D 2019-02-24 13:31:11 20.7 22 14.6
003BFE9D 2019-02-24 12:58:23 20.8 22 14.7
003BFE9D 2019-02-24 11:52:53 20.8 22 14.5
003BFE9D 2019-02-24 11:20:08 20.7 22 14.7
003BFE9D 2019-02-24 10:47:22 20.8 21 14.8
003BFE9D 2019-02-24 10:14:38 20.7 21 14.7
003BFE9D 2019-02-24 09:41:50 20.8 21 14.6
003BFE9D 2019-02-24 09:09:04 20.8 21 14.5
003BFE9D 2019-02-24 08:35:46 20.8 21 14.4
003BFE9D 2019-02-24 08:03:01 20.8 21 14.5
003BFE9D 2019-02-24 07:30:13 20.8 21 14.5
003BFE9D 2019-02-24 06:57:26 20.8 21 14.6
003BFE9D 2019-02-24 06:24:40 20.8 21 14.6
003BFE9D 2019-02-24 05:51:55 20.8 21 14.8
003BFE9D 2019-02-24 05:19:06 20.8 21 15
003BFE9D 2019-02-24 04:46:20 20.8 21 14.9
003BFE9D 2019-02-24 04:13:38 20.9 21 15
003BFE9D 2019-02-24 03:40:47 20.9 21 15
003BFE9D 2019-02-24 03:08:00 20.9 21 14.9
003BFE9D 2019-02-24 02:35:15 20.9 20 15.2
003BFE9D 2019-02-24 02:02:27 20.9 20 15.4
003BFE9D 2019-02-24 01:29:45 20.9 20 15.5
003BFE9D 2019-02-24 00:56:58 20.9 20 15.6
003BFE9D 2019-02-24 00:24:10 21 20 15.8
003BFE9D 2019-02-23 23:51:26 21 20 15.8
003BFE9D 2019-02-23 23:18:39 21 20 15.7
003BFE9D 2019-02-23 22:45:55 21 19 15.7
003BFE9D 2019-02-23 22:13:04 21.1 19 15.6
003BFE9D 2019-02-23 21:40:20 21.1 19 15.5
003BFE9D 2019-02-23 21:07:31 21.1 19 15.4
003BFE9D 2019-02-23 20:34:45 21.1 19 15.7
003BFE9D 2019-02-23 20:01:59 21.2 18 16.1
003BFE9D 2019-02-23 19:29:13 21.2 18 15.9
003BFE9D 2019-02-23 18:56:29 21.2 18 16
003BFE9D 2019-02-23 18:23:40 21.2 18 16
003BFE9D 2019-02-23 17:50:54 21.2 17 16.3
003BFE9D 2019-02-23 17:18:07 21.2 17 16.4
003BFE9D 2019-02-23 16:45:20 21.2 17 16.4
003BFE9D 2019-02-23 16:12:34 21.2 17 16.3
003BFE9D 2019-02-23 15:39:47 21.1 17 16.1
003BFE9D 2019-02-23 15:07:04 21 16 16.4
003BFE9D 2019-02-23 14:34:15 20.9 16 16.7
003BFE9D 2019-02-23 14:01:26 20.9 16 16.8
003BFE9D 2019-02-23 13:28:38 20.9 16 16.7
003BFE9D 2019-02-23 12:55:50 20.8 15 16.4
003BFE9D 2019-02-23 12:23:06 20.8 15 16.2
003BFE9D 2019-02-23 11:50:19 20.9 15 16.4
003BFE9D 2019-02-23 11:17:30 20.8 15 16.4
003BFE9D 2019-02-23 10:44:42 20.9 15 16
003BFE9D 2019-02-23 10:11:56 20.9 15 16.2
003BFE9D 2019-02-23 09:39:09 20.8 14 16.2
003BFE9D 2019-02-23 09:06:25 20.8 14 16.3
003BFE9D 2019-02-23 08:33:37 20.8 14 16.3
003BFE9D 2019-02-23 08:00:51 20.8 14 16.6
003BFE9D 2019-02-23 07:28:04 20.8 14 16.9
003BFE9D 2019-02-23 06:55:17 20.8 13 16.7
003BFE9D 2019-02-23 06:22:31 20.8 13 16.7
003BFE9D 2019-02-23 05:49:43 20.8 13 16.9
003BFE9D 2019-02-23 05:16:24 20.8 13 16.9
003BFE9D 2019-02-23 04:43:42 20.8 13 16.9
003BFE9D 2019-02-23 04:10:51 20.8 13 16.9
003BFE9D 2019-02-23 03:38:05 20.8 12 17
003BFE9D 2019-02-23 03:05:18 20.8 12 17.1
003BFE9D 2019-02-23 02:32:33 20.8 12 17.2
003BFE9D 2019-02-23 01:59:47 20.9 12 17
003BFE9D 2019-02-23 01:26:58 20.9 12 16.8
003BFE9D 2019-02-23 00:54:12 20.9 12 16.9
003BFE9D 2019-02-23 00:21:25 20.9 12 16.9
003BFE9D 2019-02-22 23:48:38 20.9 12 16.9
003BFE9D 2019-02-22 23:15:55 21 12 16.9
003BFE9D 2019-02-22 22:43:07 21 12 16.9
003BFE9D 2019-02-22 22:10:20 21 12 16.9
003BFE9D 2019-02-22 21:37:35 21 12 16.8
003BFE9D 2019-02-22 21:04:47 21 11 16.9
003BFE9D 2019-02-22 20:32:00 21.1 11 17
003BFE9D 2019-02-22 19:59:14 21.1 11 17.1
003BFE9D 2019-02-22 19:26:28 21.2 11 17.4
003BFE9D 2019-02-22 18:53:42 21.2 11 17.1
003BFE9D 2019-02-22 18:20:54 21.2 12 17
003BFE9D 2019-02-22 17:48:09 21.2 12 17
003BFE9D 2019-02-22 17:15:20 21.3 12 16.6
003BFE9D 2019-02-22 16:42:34 21.3 12 16.7
003BFE9D 2019-02-22 16:09:47 21.2 12 16.9
003BFE9D 2019-02-22 15:37:00 21.1 12 16.9
003BFE9D 2019-02-22 15:04:15 21 12 16.8
003BFE9D 2019-02-22 14:31:27 20.9 12 16.7
003BFE9D 2019-02-22 13:58:40 20.8 13 16.5
003BFE9D 2019-02-22 13:25:55 20.8 13 16.4
003BFE9D 2019-02-22 12:53:08 20.7 13 16.4
003BFE9D 2019-02-22 12:20:21 20.7 13 16.7
003BFE9D 2019-02-22 11:47:36 20.7 13 16.8
003BFE9D 2019-02-22 11:14:50 20.6 13 16.6
003BFE9D 2019-02-22 10:42:02 20.5 13 16.7
003BFE9D 2019-02-22 10:09:15 20.4 13 16.7
003BFE9D 2019-02-22 09:36:29 20.4 13 16.9
003BFE9D 2019-02-22 09:03:41 20.4 13 16.7
003BFE9D 2019-02-22 08:30:55 20.4 13 16.7
003BFE9D 2019-02-22 07:58:09 20.5 13 16.8
003BFE9D 2019-02-22 07:25:24 20.5 13 16.5
003BFE9D 2019-02-22 06:52:36 20.5 13 16.4
003BFE9D 2019-02-22 06:19:49 20.5 13 16.4
003BFE9D 2019-02-22 05:47:03 20.5 13 16.3
003BFE9D 2019-02-22 05:14:14 20.5 13 16.4
003BFE9D 2019-02-22 04:41:28 20.5 13 16.3
003BFE9D 2019-02-22 04:08:41 20.6 13 16.4
003BFE9D 2019-02-22 03:35:54 20.6 13 16.4
003BFE9D 2019-02-22 03:03:08 20.6 13 16.2
003BFE9D 2019-02-22 02:30:21 20.8 13 16.3
003BFE9D 2019-02-22 02:18:05 20.6 13 16.5
003BFE9D 2019-02-22 02:07:04 20.6 13 16.5
003BFE9D 2019-02-22 01:56:00 20.6 13 16.7
003BFE9D 2019-02-22 01:44:59 20.6 13 16.9
003BFE9D 2019-02-22 01:33:58 20.6 13 17.1
003BFE9D 2019-02-22 01:22:56 20.7 13 17
003BFE9D 2019-02-22 01:11:54 20.6 13 16.8
003BFE9D 2019-02-22 01:00:55 20.7 13 16.6
003BFE9D 2019-02-22 00:49:51 20.7 13 16.8
003BFE9D 2019-02-22 00:38:50 20.7 13 16.8
003BFE9D 2019-02-22 00:27:48 20.7 13 16.8
003BFE9D 2019-02-22 00:16:47 20.7 13 16.9
003BFE9D 2019-02-22 00:05:44 20.7 13 17
003BFE9D 2019-02-21 23:54:44 20.7 13 17.2
003BFE9D 2019-02-21 23:43:42 20.7 13 17.2
003BFE9D 2019-02-21 23:32:41 20.7 13 17.2
003BFE9D 2019-02-21 23:21:39 20.7 13 17.2
003BFE9D 2019-02-21 23:10:38 20.7 13 17.2
003BFE9D 2019-02-21 22:59:36 20.8 13 16.9
003BFE9D 2019-02-21 22:48:35 20.8 13 17
003BFE9D 2019-02-21 22:37:34 20.8 13 16.9
003BFE9D 2019-02-21 22:26:32 20.8 13 16.8
003BFE9D 2019-02-21 22:15:30 20.8 13 16.8
003BFE9D 2019-02-21 22:04:29 20.8 13 16.7
003BFE9D 2019-02-21 21:53:29 20.8 13 16.4
003BFE9D 2019-02-21 21:42:26 20.9 13 16.1
003BFE9D 2019-02-21 21:31:24 20.9 13 15.9
003BFE9D 2019-02-21 21:20:23 20.9 13 15.8
003BFE9D 2019-02-21 21:09:21 20.9 13 15.4
003BFE9D 2019-02-21 20:58:22 20.9 13 15.3
003BFE9D 2019-02-21 20:47:19 20.9 13 15.4
003BFE9D 2019-02-21 20:36:20 20.9 13 18.6
003BFE9D 2019-02-21 20:25:16 20.9 13 20.5
003BFE9D 2019-02-21 20:14:15 21 13 21.7
003BFE9D 2019-02-21 20:03:14 21 13 22.7
003BFE9D 2019-02-21 19:52:12 21 13 23.5
003BFE9D 2019-02-21 19:41:10 21 13 23.5
003BFE9D 2019-02-21 19:30:09 21 14 23.5
003BFE9D 2019-02-21 19:19:08 21 14 23.4
003BFE9D 2019-02-21 19:08:06 21.1 14 23.4
003BFE9D 2019-02-21 18:57:05 21.1 14 23.4
003BFE9D 2019-02-21 18:46:02 21.1 14 23.4
003BFE9D 2019-02-21 18:35:01 21.2 14 23.4
003BFE9D 2019-02-21 18:24:04 21.2 14 23.4
003BFE9D 2019-02-21 18:12:57 21.2 14 23.4
003BFE9D 2019-02-21 18:01:57 21.2 14 23.3
003BFE9D 2019-02-21 17:50:54 21.2 14 23.3
003BFE9D 2019-02-21 17:39:54 21.2 14 23.3
003BFE9D 2019-02-21 17:28:52 21.2 14 23.3
003BFE9D 2019-02-21 17:17:18 21.1 14 23.3
003BFE9D 2019-02-21 16:44:33 21 15 23.3
003BFE9D 2019-02-21 16:11:45 20.9 15 23.3
003BFE9D 2019-02-21 15:38:59 20.8 15 23.3
003BFE9D 2019-02-21 15:06:09 20.7 14 23.3
003BFE9D 2019-02-21 14:33:21 20.7 15 23.3
003BFE9D 2019-02-21 14:00:34 20.7 15 22.5
003BFE9D 2019-02-21 13:27:46 20.7 15 21.3
003BFE9D 2019-02-21 12:54:59 20.7 15 19.9
003BFE9D 2019-02-21 11:49:24 20.6 16 17.8
003BFE9D 2019-02-21 11:16:39 20.6 16 13.3
003BFE9D 2019-02-21 10:11:04 20.6 17 13.4
003BFE9D 2019-02-21 08:32:47 20.6 17 13.2
003BFE9D 2019-02-21 07:59:58 20.6 18 13.4
003BFE9D 2019-02-21 07:27:13 20.6 18 13.4
003BFE9D 2019-02-21 06:54:28 20.6 18 13.2
003BFE9D 2019-02-21 06:21:42 20.6 18 13.7
003BFE9D 2019-02-21 05:48:54 20.6 19 13.6
003BFE9D 2019-02-21 05:16:08 20.6 19 13.7
003BFE9D 2019-02-21 04:10:35 20.7 19 13.7
003BFE9D 2019-02-21 03:37:48 20.7 19 13.7
003BFE9D 2019-02-21 03:05:01 20.7 19 13.9
003BFE9D 2019-02-21 02:32:16 20.7 19 18.1
003BFE9D 2019-02-21 01:59:30 20.7 19 18
003BFE9D 2019-02-21 01:26:44 20.7 19 18
003BFE9D 2019-02-21 00:53:56 20.7 20 20.1
003BFE9D 2019-02-21 00:21:14 20.7 20 20.1
003BFE9D 2019-02-20 23:48:27 20.7 20 21.5
003BFE9D 2019-02-20 23:15:39 20.7 20 21.5
003BFE9D 2019-02-20 22:42:49 20.8 20 22.6
003BFE9D 2019-02-20 22:10:03 20.8 20 22.6
003BFE9D 2019-02-20 21:37:19 20.8 20 22.6
003BFE9D 2019-02-20 21:04:30 20.8 20 22.6
003BFE9D 2019-02-20 20:31:42 20.8 21 22.7
003BFE9D 2019-02-20 19:58:56 20.8 21 22.6
003BFE9D 2019-02-20 19:26:09 20.8 21 22.6
003BFE9D 2019-02-20 18:53:22 20.8 21 22.6
003BFE9D 2019-02-20 18:20:37 20.8 21 22.7
003BFE9D 2019-02-20 17:47:47 20.9 21 22.7
003BFE9D 2019-02-20 17:15:02 20.9 22 22.7
003BFE9D 2019-02-20 16:42:14 20.9 22 22.7
003BFE9D 2019-02-20 16:09:29 20.9 23 22.7
003BFE9D 2019-02-20 15:03:55 20.9 23 22.8
003BFE9D 2019-02-20 14:31:10 21.1 23 22.7
003BFE9D 2019-02-20 14:29:50 20.8 23 22.7